Weather Roundup
Issued by NWS Chicago, IL

Home | Current Version | Previous Version | Text Only | Print | Product List | Glossary Off
Versions: 1 2 3 4 5 6 7 8 9 10 11 12 13 14 15 16 17 18 19 20 21 22 23 24 25 26 27 28 29 30 31 32 33 34 35 36 37 38 39 40 41 42 43 44 45 46 47 48 49 50

000
NZUS59 KLOT 291008
HRRLOT

CHICAGO AREA WEATHER ROUNDUP
NATIONAL WEATHER SERVICE CHICAGO/ROMEOVILLE IL
500 AM CDT WED MAR 29 2017

NOTE: "FAIR" INDICATES FEW OR NO CLOUDS BELOW 12,000 FEET WITH NO
SIGNIFICANT WEATHER AND/OR OBSTRUCTIONS TO VISIBILITY.

* THESE STATIONS ARE NOT UNDER NWS QUALITY CONTROL. THEY ALSO MAY NOT
  REPORT WEATHER SUCH AS PRECIPITATION OR FOG.

ILZ005-006-012>014-019>023-291100-
NORTHEAST ILLINOIS

CITY           SKY/WX    TMP DP  RH WIND       PRES   REMARKS
OHARE          FOG       35  33  92 NE6       30.22S VSB 1   WCI  30
MIDWAY         CLOUDY    36  35  96 NE9       30.22F FOG
AURORA         CLOUDY    38  36  92 E10       30.21S FOG
LANSING*       FOG       35  35 100 NE7       30.21F VSB 1/2 WCI  29
JOLIET*        CLOUDY    38  38  97 NE8       30.21R FOG
WAUKEGAN       FOG       31  31 100 NE6       30.23S VSB 1/4 WCI  25
DUPAGE AIRPORT CLOUDY    36  36 100 NE8       30.21R FOG
WHEELING       FOG       32  32 100 E6        30.24S VSB 1   WCI  26
KANKAKEE*      CLOUDY    40  38  95 NE10      30.19S
MORRIS*        CLOUDY    38  37  94 E6        30.19R FOG
LEWIS AIRPORT* CLOUDY    37  37 100 E10       30.21R FOG
NORTHERLY ISL    N/A     34  33  96 N9          N/A  WCI  27
$$

WIZ051-052-058>065-066-070>072-291100-
SOUTHEAST WISCONSIN

CITY           SKY/WX    TMP DP  RH WIND       PRES   REMARKS
MILWAUKEE      FOG       32  30  92 E3        30.25S VSB 1/4
KENOSHA*       FOG       31  30  96 NE6       30.24R VSB 1/4 WCI  25
RACINE*        FOG       31  30  96 NE3       30.26S VSB 1/4
WAUKESHA       CLEAR     28  28 100 CALM      30.25S
WEST BEND      CLEAR     30  30 100 CALM      30.25R
$$

INZ001>003-010>013-019-020-291100-
NORTHWEST INDIANA

CITY           SKY/WX    TMP DP  RH WIND       PRES   REMARKS
GARY*          FOG       36  36 100 NE5       30.23S VSB 1/4
MICHIGAN CITY* NOT AVBL
RENSSELAER*    NOT AVBL
VALPARAISO     CLEAR     36  35  96 NE5       30.21S FOG
$$

LMZ740>746-291100-
SOUTHERN LAKE MICHIGAN

STATION/POSITION TIME  SKY/WX   TEMP WIND        PRES    VSBY
                                AIR  DIR/SP/G
                 (UTC)          (F)  (DEG/KT/KT) (MB)    (MI)
HARRISON CRIB    0940            35   30/  7/  8   N/A
BURNHAM HARBOR   1000            34   30/  7/ 10   N/A
CALUMET HARBOR   0948            34   30/  7/ 10 1023.0S
BURNS HARBOR     0940            35   70/  7/  9 1023.7S
MICHIGAN CITY    0940            37   40/  7/  7   N/A
$$

ABBREVIATIONS USED IN REMARKS
   TC - TEMPERATURE IN CELSIUS
  WCI - WIND CHILL INDEX
   HX - HEAT INDEX
  VSB - VISIBILITY
$$




USA.gov is the U.S. government's official web portal to all federal, state and local government web resources and services.